AOJ74J LOWW-LICC

Flight info

Callsign AOJ74J
Flight time 1h 44m
Altitude 38000
Route RUPET DCT GRZ DCT DARZA DCT XAMIT DCT SOR DCT PELEN Q789 UXUTA
Aircraft C750/M-SBDE3FGHRWXY/S

Departure

Time 2026-05-06 19:02
Airport Vienna International Airport (LOWW)

Arrival

Time 2026-05-06 20:46
Airport Catania-Fontanarossa Airport (LICC)
Time Latitude Longitude Altitude Speed Heading
2026-05-06 18:33 48.12716 16.53616 613 ft 0 kts 296°
2026-05-06 18:56 48.12720 16.53605 607 ft 2 kts 296°
2026-05-06 18:56 48.12724 16.53573 607 ft 5 kts 250°
2026-05-06 18:56 48.12686 16.53545 614 ft 6 kts 181°
2026-05-06 18:57 48.12653 16.53573 611 ft 5 kts 173°
2026-05-06 18:57 48.12621 16.53552 607 ft 7 kts 206°
2026-05-06 18:57 48.12591 16.53530 613 ft 5 kts 206°
2026-05-06 18:57 48.12565 16.53512 607 ft 5 kts 205°
2026-05-06 18:58 48.12525 16.53499 607 ft 6 kts 171°
2026-05-06 18:58 48.12480 16.53498 607 ft 8 kts 195°
2026-05-06 18:58 48.12436 16.53469 607 ft 6 kts 206°
2026-05-06 18:58 48.12387 16.53433 607 ft 9 kts 206°
2026-05-06 18:59 48.12337 16.53398 607 ft 7 kts 204°
2026-05-06 18:59 48.12291 16.53379 607 ft 7 kts 176°
2026-05-06 18:59 48.12257 16.53413 607 ft 5 kts 122°
2026-05-06 18:59 48.12250 16.53433 607 ft 0 kts 115°
2026-05-06 19:01 48.12247 16.53443 611 ft 14 kts 115°
2026-05-06 19:01 48.12038 16.54084 609 ft 118 kts 116°
2026-05-06 19:02 48.11615 16.55408 719 ft 154 kts 120°
2026-05-06 19:02 48.11135 16.56950 1250 ft 165 kts 122°
2026-05-06 19:02 48.10666 16.58354 2316 ft 139 kts 130°
2026-05-06 19:02 48.10208 16.59654 2954 ft 148 kts 131°
2026-05-06 19:03 48.09731 16.61070 3557 ft 154 kts 129°
2026-05-06 19:03 48.09250 16.62530 4198 ft 160 kts 129°
2026-05-06 19:03 48.08747 16.64055 4811 ft 166 kts 128°
2026-05-06 19:03 48.08212 16.65664 5267 ft 184 kts 127°
2026-05-06 19:04 48.07600 16.67494 5607 ft 209 kts 124°
2026-05-06 19:04 48.06603 16.69116 5747 ft 221 kts 159°
2026-05-06 19:04 48.05053 16.69343 5824 ft 238 kts 194°
2026-05-06 19:04 48.03553 16.68226 6235 ft 244 kts 220°
2026-05-06 19:05 48.02437 16.66325 6918 ft 245 kts 231°
2026-05-06 19:05 48.01394 16.64284 7564 ft 250 kts 231°
2026-05-06 19:05 48.00260 16.62288 8240 ft 254 kts 227°
2026-05-06 19:05 47.99060 16.60334 8944 ft 257 kts 227°
2026-05-06 19:06 47.97589 16.58768 9490 ft 265 kts 209°
2026-05-06 19:06 47.95913 16.57621 10369 ft 267 kts 205°
2026-05-06 19:06 47.94135 16.56463 10625 ft 292 kts 205°
2026-05-06 19:06 47.92192 16.55190 10710 ft 319 kts 205°
2026-05-06 19:07 47.90109 16.53821 11131 ft 330 kts 205°
2026-05-06 19:07 47.88161 16.52139 11821 ft 331 kts 219°
2026-05-06 19:07 47.86610 16.49625 12633 ft 330 kts 230°
2026-05-06 19:07 47.85195 16.46880 13221 ft 337 kts 231°
2026-05-06 19:08 47.83761 16.44088 13815 ft 343 kts 231°
2026-05-06 19:08 47.82300 16.41279 14486 ft 343 kts 231°
2026-05-06 19:08 47.80828 16.38458 15073 ft 347 kts 231°
2026-05-06 19:08 47.79345 16.35606 15663 ft 351 kts 231°
2026-05-06 19:09 47.77846 16.32720 16272 ft 354 kts 231°
2026-05-06 19:09 47.76324 16.29799 16836 ft 358 kts 231°
2026-05-06 19:09 47.74794 16.26870 17559 ft 361 kts 231°
2026-05-06 19:09 47.73253 16.23921 18233 ft 364 kts 231°
2026-05-06 19:10 47.71688 16.20927 18760 ft 369 kts 231°
2026-05-06 19:10 47.70108 16.17906 19342 ft 372 kts 231°
2026-05-06 19:10 47.68517 16.14873 20002 ft 374 kts 231°
2026-05-06 19:10 47.66913 16.11812 20651 ft 377 kts 231°
2026-05-06 19:11 47.65293 16.08727 21278 ft 381 kts 231°
2026-05-06 19:11 47.63657 16.05618 21866 ft 384 kts 231°
2026-05-06 19:11 47.62005 16.02484 22458 ft 387 kts 231°
2026-05-06 19:11 47.60343 15.99325 23099 ft 390 kts 231°
2026-05-06 19:12 47.58665 15.96142 23650 ft 393 kts 231°
2026-05-06 19:12 47.56976 15.92947 24195 ft 395 kts 231°
2026-05-06 19:12 47.55278 15.89739 24734 ft 397 kts 231°
2026-05-06 19:12 47.53594 15.86558 25218 ft 400 kts 231°
2026-05-06 19:13 47.51850 15.83265 25713 ft 403 kts 231°
2026-05-06 19:13 47.50137 15.80039 26197 ft 405 kts 231°
2026-05-06 19:13 47.48391 15.76763 26726 ft 407 kts 231°
2026-05-06 19:13 47.46345 15.73860 27143 ft 411 kts 217°
2026-05-06 19:14 47.43857 15.71756 27677 ft 415 kts 205°
2026-05-06 19:14 47.41145 15.70220 28191 ft 418 kts 202°
2026-05-06 19:14 47.38412 15.68714 28710 ft 421 kts 203°
2026-05-06 19:14 47.35656 15.67175 29161 ft 424 kts 203°
2026-05-06 19:15 47.32887 15.65617 29600 ft 428 kts 204°
2026-05-06 19:15 47.30090 15.64057 30061 ft 431 kts 204°
2026-05-06 19:15 47.27280 15.62499 30469 ft 433 kts 204°
2026-05-06 19:15 47.24456 15.60931 30900 ft 434 kts 204°
2026-05-06 19:16 47.21640 15.59365 31557 ft 431 kts 204°
2026-05-06 19:16 47.18848 15.57815 32210 ft 428 kts 204°
2026-05-06 19:16 47.16070 15.56276 32842 ft 425 kts 204°
2026-05-06 19:16 47.13307 15.54746 33374 ft 425 kts 204°
2026-05-06 19:17 47.10542 15.53216 33945 ft 424 kts 204°
2026-05-06 19:17 47.07790 15.51696 34497 ft 422 kts 204°
2026-05-06 19:17 47.05046 15.50183 35009 ft 421 kts 204°
2026-05-06 19:17 47.02312 15.48676 35519 ft 420 kts 204°
2026-05-06 19:18 46.99581 15.47172 36038 ft 418 kts 204°
2026-05-06 19:18 46.96861 15.45677 36542 ft 417 kts 203°
2026-05-06 19:18 46.94068 15.44477 36965 ft 421 kts 196°
2026-05-06 19:18 46.91197 15.43615 37438 ft 421 kts 195°
2026-05-06 19:19 46.88335 15.42722 37943 ft 420 kts 196°
2026-05-06 19:19 46.85483 15.41815 38432 ft 419 kts 196°
2026-05-06 19:19 46.82630 15.40930 38807 ft 420 kts 195°
2026-05-06 19:19 46.79764 15.40054 39090 ft 422 kts 195°
2026-05-06 19:20 46.76885 15.39166 39387 ft 424 kts 195°
2026-05-06 19:20 46.73992 15.38266 39689 ft 426 kts 196°
2026-05-06 19:20 46.71127 15.37380 39997 ft 428 kts 195°
2026-05-06 19:20 46.68206 15.36483 40318 ft 430 kts 195°
2026-05-06 19:21 46.65272 15.35581 40646 ft 432 kts 195°
2026-05-06 19:21 46.62327 15.34674 40970 ft 434 kts 195°
2026-05-06 19:21 46.59369 15.33764 41297 ft 436 kts 195°
2026-05-06 19:21 46.56399 15.32854 41641 ft 437 kts 195°
2026-05-06 19:22 46.53417 15.31941 42008 ft 438 kts 195°
2026-05-06 19:22 46.50433 15.31027 42376 ft 439 kts 195°
2026-05-06 19:22 46.47442 15.30111 42698 ft 441 kts 195°
2026-05-06 19:22 46.44436 15.29193 43017 ft 442 kts 195°
2026-05-06 19:23 46.41420 15.28273 43344 ft 444 kts 195°
2026-05-06 19:23 46.38393 15.27351 43668 ft 445 kts 194°
2026-05-06 19:23 46.35353 15.26425 43990 ft 447 kts 194°
2026-05-06 19:23 46.32313 15.25502 44400 ft 446 kts 194°
2026-05-06 19:24 46.29269 15.24577 44693 ft 448 kts 194°
2026-05-06 19:24 46.26220 15.23651 45010 ft 448 kts 194°
2026-05-06 19:24 46.23170 15.22727 45319 ft 448 kts 194°
2026-05-06 19:24 46.20120 15.21804 45602 ft 448 kts 194°
2026-05-06 19:25 46.17072 15.20883 45899 ft 448 kts 194°
2026-05-06 19:25 46.15049 15.20271 46089 ft 447 kts 194°
2026-05-06 19:25 46.12024 15.19359 46549 ft 442 kts 194°
2026-05-06 19:25 46.09019 15.18453 46838 ft 441 kts 194°
2026-05-06 19:26 46.06013 15.17547 47055 ft 442 kts 194°
2026-05-06 19:26 46.03005 15.16642 47283 ft 442 kts 194°
2026-05-06 19:26 45.99998 15.15739 47521 ft 441 kts 194°
2026-05-06 19:26 45.96993 15.14837 47732 ft 441 kts 194°
2026-05-06 19:27 45.93985 15.13935 47879 ft 443 kts 194°
2026-05-06 19:27 45.90961 15.13029 48009 ft 444 kts 194°
2026-05-06 19:27 45.87931 15.12123 48220 ft 444 kts 194°
2026-05-06 19:27 45.84906 15.11220 48427 ft 444 kts 194°
2026-05-06 19:28 45.81878 15.10316 48626 ft 444 kts 194°
2026-05-06 19:28 45.78853 15.09414 48813 ft 444 kts 194°
2026-05-06 19:28 45.75827 15.08514 48936 ft 445 kts 194°
2026-05-06 19:29 45.69745 15.06703 48932 ft 454 kts 194°
2026-05-06 19:29 45.63510 15.04855 48937 ft 461 kts 194°
2026-05-06 19:30 45.57173 15.02978 48918 ft 469 kts 194°
2026-05-06 19:30 45.50730 15.01079 48944 ft 477 kts 193°
2026-05-06 19:31 45.44064 15.00143 48949 ft 486 kts 185°
2026-05-06 19:31 45.33832 14.99144 48958 ft 497 kts 186°
2026-05-06 19:32 45.26890 14.98478 48958 ft 502 kts 186°
2026-05-06 19:32 45.19889 14.97780 48962 ft 507 kts 186°
2026-05-06 19:33 45.12842 14.97089 48960 ft 504 kts 187°
2026-05-06 19:33 45.05851 14.96404 48972 ft 505 kts 187°
2026-05-06 19:34 44.98829 14.95714 48972 ft 507 kts 187°
2026-05-06 19:34 44.91837 14.95034 48972 ft 502 kts 187°
2026-05-06 19:35 44.84863 14.94351 48972 ft 503 kts 187°
2026-05-06 19:35 44.77879 14.93675 48972 ft 503 kts 187°
2026-05-06 19:36 44.70905 14.92994 48988 ft 504 kts 187°
2026-05-06 19:36 44.63880 14.92317 48987 ft 508 kts 187°
2026-05-06 19:37 44.56802 14.91635 48982 ft 509 kts 187°
2026-05-06 19:37 44.49737 14.90955 48991 ft 509 kts 187°
2026-05-06 19:38 44.42710 14.90281 48990 ft 510 kts 187°
2026-05-06 19:38 44.35581 14.89597 48981 ft 511 kts 187°
2026-05-06 19:39 44.28552 14.88926 49453 ft 499 kts 187°
2026-05-06 19:39 44.25179 14.88610 50560 ft 476 kts 187°
2026-05-06 19:39 44.21873 14.88293 50976 ft 468 kts 187°
2026-05-06 19:40 44.15426 14.87669 50954 ft 467 kts 187°
2026-05-06 19:40 44.08946 14.87061 50955 ft 466 kts 187°
2026-05-06 19:41 44.02474 14.86444 50968 ft 466 kts 187°
2026-05-06 19:41 43.96014 14.85835 50966 ft 465 kts 187°
2026-05-06 19:42 43.89558 14.85225 50955 ft 465 kts 187°
2026-05-06 19:42 43.83104 14.84618 50954 ft 465 kts 187°
2026-05-06 19:43 43.76648 14.84012 50956 ft 465 kts 187°
2026-05-06 19:43 43.70199 14.83408 50952 ft 465 kts 187°
2026-05-06 19:44 43.63746 14.82804 50941 ft 464 kts 187°
2026-05-06 19:44 43.57303 14.82203 50965 ft 464 kts 187°
2026-05-06 19:45 43.50870 14.81574 50947 ft 463 kts 189°
2026-05-06 19:45 43.44515 14.80285 50942 ft 461 kts 192°
2026-05-06 19:46 43.38128 14.79285 50957 ft 462 kts 189°
2026-05-06 19:46 43.31762 14.78160 50953 ft 461 kts 191°
2026-05-06 19:47 43.25389 14.77084 50929 ft 462 kts 190°
2026-05-06 19:47 43.19021 14.76003 50944 ft 461 kts 191°
2026-05-06 19:48 43.12654 14.74917 50940 ft 461 kts 191°
2026-05-06 19:48 43.06283 14.73844 50916 ft 461 kts 191°
2026-05-06 19:49 42.99918 14.72764 50947 ft 461 kts 191°
2026-05-06 19:49 42.93549 14.71692 50941 ft 461 kts 191°
2026-05-06 19:50 42.87223 14.70627 50917 ft 461 kts 191°
2026-05-06 19:50 42.80858 14.69558 50937 ft 461 kts 191°
2026-05-06 19:51 42.74491 14.68491 50935 ft 461 kts 191°
2026-05-06 19:51 42.68123 14.67426 50917 ft 461 kts 191°
2026-05-06 19:52 42.61756 14.66364 50921 ft 461 kts 191°
2026-05-06 19:52 42.55389 14.65304 50920 ft 461 kts 191°
2026-05-06 19:53 42.49022 14.64245 50927 ft 461 kts 191°
2026-05-06 19:53 42.42661 14.63190 50934 ft 460 kts 191°
2026-05-06 19:54 42.36300 14.62137 50943 ft 460 kts 191°
2026-05-06 19:54 42.29940 14.61087 50944 ft 460 kts 191°
2026-05-06 19:55 42.23583 14.60039 50941 ft 460 kts 191°
2026-05-06 19:55 42.17230 14.58994 50945 ft 460 kts 191°
2026-05-06 19:56 42.10880 14.57951 50951 ft 460 kts 191°
2026-05-06 19:56 42.04524 14.56910 50954 ft 460 kts 191°
2026-05-06 19:57 41.98172 14.55870 50954 ft 460 kts 191°
2026-05-06 19:57 41.91819 14.54835 50965 ft 460 kts 191°
2026-05-06 19:58 41.85468 14.53800 50964 ft 460 kts 191°
2026-05-06 19:58 41.79164 14.52775 50974 ft 459 kts 191°
2026-05-06 19:59 41.72778 14.51739 50983 ft 459 kts 191°
2026-05-06 19:59 41.66477 14.50719 51000 ft 459 kts 191°
2026-05-06 20:00 41.60133 14.49694 51013 ft 459 kts 191°
2026-05-06 20:00 41.53795 14.48672 51017 ft 459 kts 191°
2026-05-06 20:01 41.47451 14.47650 51002 ft 459 kts 191°
2026-05-06 20:01 41.41113 14.46633 51025 ft 459 kts 191°
2026-05-06 20:02 41.34776 14.45617 51025 ft 459 kts 191°
2026-05-06 20:02 41.28432 14.44602 51029 ft 459 kts 191°
2026-05-06 20:03 41.22090 14.43589 51026 ft 459 kts 191°
2026-05-06 20:03 41.15744 14.42578 51025 ft 459 kts 191°
2026-05-06 20:04 41.09401 14.41569 51034 ft 459 kts 191°
2026-05-06 20:04 41.03062 14.40563 51046 ft 459 kts 191°
2026-05-06 20:05 40.96723 14.39558 51045 ft 459 kts 191°
2026-05-06 20:05 40.90378 14.38555 51047 ft 459 kts 191°
2026-05-06 20:06 40.84039 14.37554 51053 ft 459 kts 191°
2026-05-06 20:06 40.77695 14.36555 51036 ft 459 kts 191°
2026-05-06 20:07 40.71351 14.35558 51040 ft 459 kts 191°
2026-05-06 20:07 40.65009 14.34563 51018 ft 459 kts 191°
2026-05-06 20:08 40.58667 14.33609 51023 ft 461 kts 188°
2026-05-06 20:08 40.52218 14.33844 51042 ft 464 kts 182°
2026-05-06 20:09 40.45764 14.34178 51036 ft 464 kts 182°
2026-05-06 20:09 40.39316 14.34536 51032 ft 464 kts 182°
2026-05-06 20:10 40.32868 14.34884 51034 ft 464 kts 182°
2026-05-06 20:10 40.26418 14.35233 51040 ft 464 kts 182°
2026-05-06 20:11 40.20016 14.35580 51038 ft 463 kts 182°
2026-05-06 20:11 40.13571 14.35927 51033 ft 464 kts 182°
2026-05-06 20:12 40.07124 14.36274 51024 ft 464 kts 182°
2026-05-06 20:12 40.00675 14.36621 51007 ft 464 kts 182°
2026-05-06 20:13 39.94228 14.36967 51027 ft 464 kts 182°
2026-05-06 20:13 39.87780 14.37312 51026 ft 464 kts 182°
2026-05-06 20:14 39.82417 14.37599 51022 ft 464 kts 182°
2026-05-06 20:14 39.75969 14.37943 51028 ft 464 kts 182°
2026-05-06 20:15 39.69516 14.38287 51025 ft 464 kts 182°
2026-05-06 20:15 39.63078 14.38631 50579 ft 461 kts 182°
2026-05-06 20:16 39.59880 14.38801 49986 ft 458 kts 183°
2026-05-06 20:16 39.56706 14.38969 49359 ft 455 kts 183°
2026-05-06 20:16 39.53552 14.39136 48772 ft 452 kts 183°
2026-05-06 20:16 39.50424 14.39302 48180 ft 449 kts 183°
2026-05-06 20:17 39.47307 14.39466 47581 ft 448 kts 183°
2026-05-06 20:17 39.44191 14.39630 46991 ft 448 kts 183°
2026-05-06 20:17 39.41075 14.39794 46390 ft 449 kts 183°
2026-05-06 20:17 39.37948 14.39959 45784 ft 450 kts 183°
2026-05-06 20:18 39.34817 14.40124 45165 ft 451 kts 183°
2026-05-06 20:18 39.31676 14.40290 44568 ft 452 kts 183°
2026-05-06 20:18 39.28532 14.40455 43950 ft 452 kts 183°
2026-05-06 20:18 39.25392 14.40622 43352 ft 451 kts 183°
2026-05-06 20:19 39.22261 14.40786 42758 ft 450 kts 183°
2026-05-06 20:19 39.19139 14.40949 42157 ft 449 kts 183°
2026-05-06 20:19 39.16023 14.41113 41565 ft 448 kts 183°
2026-05-06 20:19 39.12916 14.41276 40951 ft 446 kts 184°
2026-05-06 20:20 39.09813 14.41438 40388 ft 446 kts 184°
2026-05-06 20:20 39.06711 14.41600 39801 ft 446 kts 184°
2026-05-06 20:20 39.03608 14.41762 39208 ft 446 kts 184°
2026-05-06 20:20 39.00516 14.41925 38608 ft 444 kts 184°
2026-05-06 20:21 38.97434 14.42085 37976 ft 441 kts 184°
2026-05-06 20:21 38.94374 14.42244 37395 ft 440 kts 184°
2026-05-06 20:21 38.91308 14.42402 36813 ft 441 kts 183°
2026-05-06 20:21 38.88240 14.42562 36232 ft 443 kts 182°
2026-05-06 20:22 38.85162 14.42723 35643 ft 442 kts 182°
2026-05-06 20:22 38.82090 14.42883 35059 ft 441 kts 181°
2026-05-06 20:22 38.79025 14.43043 34476 ft 440 kts 181°
2026-05-06 20:22 38.75969 14.43202 33888 ft 439 kts 180°
2026-05-06 20:23 38.72918 14.43360 33281 ft 440 kts 180°
2026-05-06 20:23 38.69851 14.43516 32701 ft 442 kts 180°
2026-05-06 20:23 38.66773 14.43676 32101 ft 445 kts 180°
2026-05-06 20:23 38.63671 14.43837 31521 ft 447 kts 180°
2026-05-06 20:24 38.60561 14.43997 30931 ft 447 kts 180°
2026-05-06 20:24 38.57443 14.44158 30335 ft 448 kts 180°
2026-05-06 20:24 38.54348 14.44319 29709 ft 442 kts 180°
2026-05-06 20:24 38.51287 14.44477 29127 ft 439 kts 180°
2026-05-06 20:25 38.48247 14.44633 28542 ft 435 kts 180°
2026-05-06 20:25 38.45232 14.44787 27974 ft 432 kts 180°
2026-05-06 20:25 38.42275 14.44940 27412 ft 430 kts 180°
2026-05-06 20:25 38.39298 14.45092 26848 ft 426 kts 180°
2026-05-06 20:26 38.36345 14.45244 26287 ft 423 kts 180°
2026-05-06 20:26 38.33424 14.45689 25695 ft 425 kts 169°
2026-05-06 20:26 38.30658 14.47032 25178 ft 427 kts 159°
2026-05-06 20:26 38.27977 14.48636 24624 ft 425 kts 158°
2026-05-06 20:27 38.25313 14.50251 24070 ft 422 kts 158°
2026-05-06 20:27 38.22623 14.51844 23505 ft 420 kts 159°
2026-05-06 20:27 38.20019 14.53368 22921 ft 414 kts 159°
2026-05-06 20:27 38.17415 14.54910 22392 ft 412 kts 159°
2026-05-06 20:28 38.14830 14.56449 21848 ft 409 kts 159°
2026-05-06 20:28 38.12257 14.57971 21310 ft 407 kts 159°
2026-05-06 20:28 38.09697 14.59477 20785 ft 404 kts 160°
2026-05-06 20:28 38.07159 14.60975 20257 ft 401 kts 160°
2026-05-06 20:29 38.04634 14.62467 19732 ft 399 kts 160°
2026-05-06 20:29 38.02125 14.63945 19209 ft 396 kts 160°
2026-05-06 20:29 37.99632 14.65412 18706 ft 394 kts 160°
2026-05-06 20:29 37.97153 14.66871 18171 ft 392 kts 161°
2026-05-06 20:30 37.94691 14.68319 17641 ft 388 kts 161°
2026-05-06 20:30 37.89725 14.70108 16612 ft 359 kts 190°
2026-05-06 20:30 37.87461 14.69197 16219 ft 327 kts 209°
2026-05-06 20:31 37.85583 14.67793 16019 ft 302 kts 218°
2026-05-06 20:31 37.84008 14.66032 16027 ft 304 kts 228°
2026-05-06 20:31 37.82733 14.63915 16026 ft 304 kts 238°
2026-05-06 20:31 37.81804 14.61518 16029 ft 304 kts 246°
2026-05-06 20:32 37.80988 14.59046 16028 ft 305 kts 245°
2026-05-06 20:32 37.80083 14.56636 16038 ft 306 kts 243°
2026-05-06 20:32 37.79024 14.54324 15974 ft 306 kts 231°
2026-05-06 20:32 37.77436 14.52551 16010 ft 309 kts 218°
2026-05-06 20:33 37.75505 14.51317 15332 ft 314 kts 202°
2026-05-06 20:33 37.73404 14.50662 14651 ft 307 kts 197°
2026-05-06 20:33 37.71244 14.50045 14013 ft 330 kts 197°
2026-05-06 20:33 37.69020 14.49363 13327 ft 328 kts 197°
2026-05-06 20:34 37.66802 14.48675 12628 ft 328 kts 196°
2026-05-06 20:34 37.64580 14.48002 11957 ft 328 kts 195°
2026-05-06 20:34 37.62445 14.47366 11614 ft 303 kts 195°
2026-05-06 20:34 37.60472 14.46771 11307 ft 281 kts 195°
2026-05-06 20:35 37.58607 14.46274 10968 ft 270 kts 187°
2026-05-06 20:35 37.56724 14.46507 10260 ft 276 kts 168°
2026-05-06 20:35 37.54960 14.47466 9549 ft 276 kts 155°
2026-05-06 20:35 37.53277 14.48600 8856 ft 273 kts 155°
2026-05-06 20:36 37.51608 14.49688 8372 ft 264 kts 155°
2026-05-06 20:36 37.49980 14.50735 8068 ft 263 kts 155°
2026-05-06 20:36 37.48352 14.51790 7724 ft 261 kts 155°
2026-05-06 20:36 37.46749 14.52837 7378 ft 260 kts 154°
2026-05-06 20:37 37.45140 14.53886 7030 ft 260 kts 154°
2026-05-06 20:37 37.43769 14.55356 6606 ft 265 kts 126°
2026-05-06 20:37 37.43148 14.57525 6298 ft 265 kts 107°
2026-05-06 20:37 37.42873 14.59822 5963 ft 266 kts 99°
2026-05-06 20:38 37.42901 14.62149 5781 ft 269 kts 89°
2026-05-06 20:38 37.43119 14.64472 5675 ft 268 kts 87°
2026-05-06 20:38 37.43326 14.66790 5563 ft 266 kts 88°
2026-05-06 20:38 37.43525 14.69112 5446 ft 265 kts 88°
2026-05-06 20:39 37.43721 14.71417 5263 ft 264 kts 88°
2026-05-06 20:39 37.43915 14.73691 4934 ft 254 kts 88°
2026-05-06 20:39 37.44097 14.75785 4600 ft 229 kts 87°
2026-05-06 20:39 37.44264 14.77707 4304 ft 215 kts 87°
2026-05-06 20:40 37.44413 14.79548 4030 ft 209 kts 88°
2026-05-06 20:40 37.44563 14.81362 3762 ft 210 kts 87°
2026-05-06 20:40 37.44715 14.83169 3488 ft 206 kts 86°
2026-05-06 20:40 37.44861 14.84892 3215 ft 188 kts 85°
2026-05-06 20:41 37.44993 14.86451 2973 ft 171 kts 87°
2026-05-06 20:41 37.45109 14.87894 2751 ft 162 kts 84°
2026-05-06 20:41 37.45227 14.89278 2548 ft 156 kts 85°
2026-05-06 20:41 37.45340 14.90609 2329 ft 145 kts 85°
2026-05-06 20:42 37.45436 14.91762 2132 ft 123 kts 86°
2026-05-06 20:42 37.45522 14.92813 1986 ft 114 kts 87°
2026-05-06 20:42 37.45607 14.93821 1849 ft 117 kts 85°
2026-05-06 20:42 37.45694 14.94847 1694 ft 117 kts 87°
2026-05-06 20:43 37.45775 14.95849 1533 ft 114 kts 87°
2026-05-06 20:43 37.45860 14.96870 1396 ft 118 kts 84°
2026-05-06 20:43 37.45945 14.97878 1221 ft 114 kts 83°
2026-05-06 20:43 37.46029 14.98879 1075 ft 114 kts 84°
2026-05-06 20:44 37.46113 14.99864 912 ft 115 kts 83°
2026-05-06 20:44 37.46193 15.00876 767 ft 115 kts 83°
2026-05-06 20:44 37.46280 15.01891 614 ft 114 kts 81°
2026-05-06 20:44 37.46360 15.02890 472 ft 112 kts 83°
2026-05-06 20:45 37.46442 15.03898 318 ft 117 kts 80°
2026-05-06 20:45 37.46538 15.04893 143 ft 112 kts 80°
2026-05-06 20:45 37.46620 15.05848 34 ft 103 kts 81°
2026-05-06 20:45 37.46686 15.06667 32 ft 82 kts 84°
2026-05-06 20:46 37.46730 15.07236 32 ft 51 kts 84°
2026-05-06 20:46 37.46764 15.07549 33 ft 23 kts 75°
2026-05-06 20:46 37.46824 15.07715 33 ft 19 kts 56°
2026-05-06 20:46 37.46892 15.07803 30 ft 10 kts 11°
2026-05-06 20:47 37.46936 15.07760 29 ft 9 kts 281°
2026-05-06 20:47 37.46930 15.07688 29 ft 8 kts 262°
2026-05-06 20:47 37.46923 15.07603 29 ft 13 kts 264°
2026-05-06 20:47 37.46913 15.07476 29 ft 16 kts 265°
2026-05-06 20:48 37.46900 15.07333 29 ft 16 kts 265°
2026-05-06 20:48 37.46892 15.07195 29 ft 15 kts 265°
2026-05-06 20:48 37.46883 15.07108 29 ft 3 kts 263°
2026-05-06 20:48 37.46883 15.07102 29 ft 0 kts 263°
2026-05-06 20:49 37.46882 15.07095 29 ft 5 kts 263°
2026-05-06 20:49 37.46883 15.07078 29 ft 1 kts 298°
2026-05-06 20:49 37.46906 15.07077 29 ft 4 kts 19°
2026-05-06 20:49 37.46928 15.07097 28 ft 4 kts 37°
2026-05-06 20:50 37.46935 15.07104 28 ft 0 kts 38°